Torna al catalogo

STARLINK-4544

AttivoComunicazioniVLEO
NORAD 53394·PAYLOAD·🇺🇸 United States

Lanciato Aug 10, 2022 da Cape Canaveral Space Force Station

Loading…

Prossimi Passaggi (prossime 24 ore)

TLE

AggiornatoSource: CelesTrak SupGP

Epoca: Sep 15, 2026, 02:44 UTC

1 53394C 22097G   26258.11437500  .00043412  00000+0  13962-2 0  2582
2 53394  53.1603 332.6504 0001229  88.4146 133.7890 15.31676429    18

Traccia STARLINK-4544 in tempo reale con AllMySat

Download on the App Store